COSMOS 413

Satellite information

Favourite Embed

Satellite Type and Status

PAYLOADIN ORBIT

Key statistics

Satellite COSMOS 413 at a glance.

Uptime

19845

Days in orbit

Revolutions

≈ 12.4

Per day

Orbit

LEO

Low Earth Orbit

Inclination

74.0

Latest

Satellite identification and parameters

Extended collection of information and parameters for COSMOS 413.

Object identification

Identified? True

Debris? False

Object name: COSMOS 413

International designator: 1971-041C

Object number (NORAD): 5212

Object ID (CCSDS): 5212

Country: COMMONWEALTH OF INDEPENDENT STATES (CIS)

Current information (Y/N): Y

RCS size: MEDIUM

Orbital parameters

Period: 115.77 minutes

Inclination: 74.0132 deg

SMA: 7868.469 km

Apoapsis: 1507.834 km

Periapsis: 1472.834 km

RAAN: 283.5521 deg

Eccentricy: 0.00222407

Argument of periapsis: 262.3526 deg

Mean anomaly: 163.3206 deg

Mean motion: 12.43848368 rev/day

Mean motion (dot): 0.00000018 rev/day2

B* drag term: 0.0002374155 1/REarth

Two-line elements (TLE)

Creation date: Sept. 4, 2025, 10:13 a.m.

Reference frame: TEME

Reference center: EARTH

Epoch: Sept. 4, 2025, 5:14 a.m. UTC

TLE line 0: 0 COSMOS 413

TLE line 1: 1 05212U 71041C 25247.21852706 .00000018 00000-0 23742-3 0 9994

TLE line 2: 2 05212 74.0132 283.5521 0022241 262.3526 163.3206 12.43848368466916

Live tracking on map

Real-time ground track for satellite COSMOS 413.

In-orbit conjunctions

There are no conjunctions computed for COSMOS 413, at the moment. Check back to stay up to date, as we update our databases every day.

Go to all conjunctions

Associated space launch

Military communications satellites

COSMOS 413 was lifted into orbit during the mission ‘Kosmos-3M | Strela-1M 9-16’, on board a Kosmos-3M space rocket.

The launch took place on May 7, 1971, 2:20 p.m. from 132/1 (132L).

For more information about the launch, click the button.

Launch to space Kosmos-3M | Strela-1M 9-16
Kosmos-3M | Strela-1M 9-16

Agency: N/A

Status: Launch Successful

Launch date: May 7, 1971, 2:20 p.m. UTC

Rocket: Kosmos-3M

Launch pad: 132/1 (132L)

Location: Plesetsk Cosmodrome, Russian Federation

...

Latest news about this satellite

There are no fresh news available about this satellite. Check back as we update our databases every day.


Newsletter sign-up

Weekly statistics, charts and insights to help you stay on top of the space industry.